Total_Precipitation_Accumulation
0.77 0.70 0.58 0.60 0.55 0.57 0.63 0.66 0.67 0.66 0.66 0.60 0.57 0.54 0.51 0.48 0.46 0.44 0.57 0.75 1.05 1.15 0.92 0.72 0.56 0.48 0.50 0.49 0.48 0.52 0.58 0.61 0.66 0.67 0.66 0.62 0.65 0.56 0.42 0.33 0.33 0.33 0.34
0.71 0.73 0.68 0.69 0.69 0.66 0.66 0.65 0.62 0.71 0.73 0.66 0.59 0.55 0.51 0.43 0.42 0.49 0.60 0.74 0.79 0.92 1.09 1.01 0.83 0.69 0.59 0.52 0.48 0.46 0.49 0.53 0.57 0.60 0.66 0.61 0.57 0.49 0.41 0.33 0.36 0.34 0.32
0.67 0.73 0.76 0.76 0.76 0.77 0.77 0.77 0.75 0.79 0.75 0.71 0.67 0.56 0.47 0.40 0.39 0.47 0.51 0.61 0.53 0.47 0.69 0.93 0.98 0.88 0.79 0.69 0.58 0.45 0.40 0.43 0.48 0.52 0.61 0.61 0.51 0.43 0.36 0.36 0.37 0.37 0.32
0.70 0.79 0.80 0.82 0.88 0.80 0.78 0.83 0.88 0.90 0.86 0.82 0.79 0.65 0.47 0.45 0.43 0.45 0.50 0.52 0.51 0.38 0.41 0.48 0.56 0.67 0.83 0.88 0.76 0.53 0.41 0.36 0.40 0.47 0.58 0.54 0.43 0.40 0.39 0.39 0.36 0.37 0.36
0.88 0.95 0.98 1.00 1.02 1.03 0.95 0.84 0.87 0.93 0.98 0.95 0.83 0.73 0.58 0.53 0.53 0.50 0.58 0.56 0.52 0.42 0.44 0.36 0.32 0.34 0.45 0.62 0.70 0.65 0.54 0.39 0.35 0.40 0.47 0.45 0.39 0.35 0.34 0.33 0.30 0.29 0.31
1.15 1.25 1.22 1.18 1.23 1.30 1.30 1.09 1.12 1.07 1.00 1.02 0.90 0.82 0.75 0.67 0.66 0.63 0.62 0.63 0.65 0.53 0.49 0.42 0.34 0.23 0.25 0.38 0.53 0.60 0.59 0.45 0.36 0.35 0.37 0.37 0.34 0.33 0.29 0.25 0.25 0.26 0.27
1.48 1.64 1.59 1.57 1.56 1.52 1.48 1.41 1.51 1.45 1.20 1.09 1.19 1.13 0.99 0.80 0.74 0.68 0.62 0.65 0.73 0.72 0.66 0.57 0.48 0.35 0.25 0.24 0.29 0.40 0.52 0.53 0.49 0.45 0.40 0.42 0.36 0.29 0.30 0.30 0.27 0.27 0.29
1.71 1.75 1.93 2.03 1.99 2.06 2.03 1.83 1.93 1.93 1.61 1.37 1.50 1.70 1.42 1.21 0.82 0.69 0.69 0.65 0.70 0.79 0.85 0.72 0.58 0.48 0.41 0.38 0.24 0.26 0.35 0.50 0.61 0.58 0.52 0.50 0.43 0.30 0.27 0.28 0.30 0.29 0.29
1.87 1.89 1.99 2.15 2.16 2.22 2.28 2.33 2.26 2.31 2.09 1.73 1.61 1.79 1.60 1.45 1.23 0.82 0.73 0.76 0.80 0.87 0.90 0.90 0.78 0.62 0.57 0.55 0.40 0.26 0.23 0.28 0.49 0.57 0.56 0.51 0.44 0.34 0.29 0.27 0.30 0.31 0.29
2.06 2.13 2.14 2.24 2.26 2.27 2.34 2.43 2.38 2.47 2.49 2.12 1.86 1.63 1.43 1.37 1.40 1.17 0.91 0.80 0.84 0.89 0.95 0.96 0.89 0.79 0.72 0.70 0.60 0.44 0.28 0.23 0.32 0.51 0.59 0.57 0.47 0.39 0.34 0.32 0.30 0.31 0.35
2.17 2.19 2.25 2.40 2.38 2.34 2.32 2.51 2.55 2.61 2.53 2.44 2.28 2.09 1.93 1.63 1.26 1.29 1.25 1.05 0.89 0.78 0.85 0.96 0.99 0.95 0.87 0.81 0.81 0.65 0.44 0.28 0.27 0.46 0.58 0.67 0.61 0.52 0.45 0.43 0.39 0.38 0.36
2.19 2.09 2.01 2.14 2.19 2.22 2.22 2.38 2.52 2.62 2.58 2.62 2.51 2.22 2.12 1.95 1.57 1.48 1.33 1.20 1.12 0.91 0.84 0.85 0.88 0.89 0.91 0.88 0.83 0.84 0.63 0.41 0.28 0.34 0.49 0.57 0.63 0.63 0.58 0.58 0.57 0.51 0.46
2.02 2.04 1.94 1.93 1.96 1.91 1.94 2.05 2.09 2.16 2.29 2.43 2.33 2.12 2.06 1.88 1.83 1.79 1.65 1.42 1.21 0.97 0.92 0.85 0.80 0.83 0.83 0.83 0.89 0.95 0.69 0.46 0.30 0.26 0.32 0.39 0.48 0.55 0.56 0.60 0.65 0.66 0.65
1.71 1.79 1.79 1.73 1.77 1.82 1.83 1.89 1.89 1.89 1.91 1.97 1.97 2.02 2.06 1.92 1.82 1.72 1.68 1.79 1.56 1.29 1.09 0.94 0.89 0.86 0.83 0.83 0.95 0.96 0.69 0.59 0.41 0.30 0.26 0.29 0.34 0.40 0.49 0.54 0.62 0.70 0.72
1.27 1.33 1.43 1.50 1.59 1.64 1.70 1.82 1.86 1.85 1.80 1.77 1.87 1.93 1.86 1.83 1.80 1.67 1.60 1.66 1.71 1.55 1.40 1.18 1.05 0.93 0.94 0.94 1.04 0.82 0.69 0.66 0.53 0.42 0.36 0.31 0.32 0.33 0.35 0.40 0.47 0.53 0.58
0.94 0.99 1.11 1.27 1.48 1.60 1.64 1.70 1.73 1.80 1.82 1.77 1.85 1.94 1.95 1.96 1.98 1.89 1.73 1.67 1.60 1.57 1.49 1.26 1.06 0.93 1.04 1.00 1.08 0.87 0.79 0.86 0.69 0.56 0.45 0.39 0.36 0.37 0.34 0.30 0.30 0.32 0.37
0.77 0.89 0.94 1.08 1.24 1.41 1.59 1.73 1.73 1.72 1.74 1.72 1.67 1.75 1.85 1.96 2.06 2.07 2.03 1.86 1.72 1.65 1.56 1.39 1.17 0.97 1.07 1.13 1.08 0.99 0.89 0.78 0.73 0.67 0.56 0.50 0.44 0.40 0.39 0.38 0.33 0.28 0.28
0.61 0.71 0.84 1.03 1.15 1.24 1.28 1.36 1.43 1.45 1.47 1.50 1.48 1.45 1.54 1.66 1.79 1.94 2.01 1.95 1.91 1.79 1.69 1.63 1.43 1.16 1.03 1.07 1.10 1.13 1.03 0.88 0.83 0.84 0.76 0.64 0.55 0.47 0.43 0.40 0.37 0.33 0.29
0.61 0.66 0.80 0.95 1.00 1.04 1.08 1.09 1.18 1.26 1.27 1.24 1.27 1.24 1.26 1.36 1.50 1.63 1.72 1.79 1.89 1.91 1.87 1.75 1.63 1.44 1.19 1.14 1.19 1.17 1.13 1.16 1.00 0.93 0.90 0.82 0.74 0.66 0.59 0.53 0.45 0.40 0.36
0.62 0.69 0.84 0.94 0.95 0.90 0.98 1.01 1.05 1.07 1.05 1.01 1.03 1.04 1.08 1.11 1.17 1.29 1.44 1.64 1.81 1.90 1.94 1.90 1.79 1.55 1.38 1.31 1.28 1.26 1.29 1.29 1.23 1.08 1.00 0.92 0.91 0.82 0.73 0.65 0.57 0.50 0.46
0.64 0.71 0.76 0.87 0.91 0.89 0.93 0.98 0.97 0.88 0.86 0.87 0.84 0.75 0.77 0.82 0.82 0.89 0.96 1.23 1.47 1.65 1.77 1.83 1.77 1.59 1.39 1.28 1.18 1.21 1.29 1.39 1.41 1.34 1.25 1.06 0.98 0.89 0.82 0.78 0.71 0.61 0.53
0.53 0.58 0.64 0.80 0.91 0.82 0.93 0.92 0.83 0.76 0.73 0.75 0.72 0.66 0.65 0.69 0.61 0.56 0.60 0.80 1.08 1.27 1.43 1.58 1.63 1.49 1.35 1.26 1.28 1.27 1.25 1.25 1.25 1.18 1.12 1.14 1.08 0.99 0.91 0.84 0.87 0.82 0.73
0.46 0.52 0.56 0.73 0.82 0.90 0.85 0.69 0.73 0.72 0.73 0.74 0.76 0.77 0.70 0.66 0.74 0.65 0.59 0.65 0.73 0.84 0.98 1.20 1.41 1.40 1.48 1.39 1.26 1.19 1.17 1.17 1.16 1.18 1.12 1.07 1.03 0.96 0.89 0.86 0.93 0.88 0.86
0.44 0.49 0.55 0.59 0.67 0.80 0.74 0.59 0.63 0.62 0.72 0.80 0.83 0.91 0.91 0.85 0.83 0.89 0.82 0.83 0.80 0.74 0.80 0.72 0.91 1.25 1.39 1.43 1.34 1.29 1.30 1.21 1.12 1.13 1.09 1.07 1.05 0.97 0.85 0.78 0.82 0.75 0.71
0.48 0.50 0.55 0.58 0.64 0.68 0.64 0.56 0.59 0.66 0.78 0.81 0.78 0.88 0.90 0.84 0.89 0.95 1.05 1.09 1.00 0.87 1.00 1.00 0.91 0.99 1.11 1.15 1.21 1.23 1.22 1.14 1.08 1.04 0.92 0.86 0.85 0.88 0.89 0.83 0.76 0.73 0.66
0.46 0.48 0.47 0.47 0.51 0.54 0.59 0.49 0.60 0.72 0.77 0.79 0.79 0.84 0.97 0.88 0.86 0.84 0.93 1.04 1.01 0.90 0.79 0.82 0.79 0.68 0.62 0.72 0.89 1.00 1.19 1.24 1.17 1.05 0.89 0.81 0.82 0.80 0.82 0.76 0.66 0.64 0.60